AEROCUBE 4.5A

Last updated on Sat Aug 30 2025 00:03:47 GMT+0000 (Coordinated Universal Time)

1 38767U 12048K 25240.59655479 .00039163 00000+0 93062-3 0 9993 2 38767 64.6473 317.9964 0093660 256.6279 102.4400 15.36934159327103
UTC large
Height (km)
Speed (km/s)
/
Latitude / Longitude
Inclination (degrees)
Orbital Period (minutes)
Azimuth
Elevation
Range (km)
Doppler Factor

Next 0 passes for location: London (51.5072 / 0.1276)

Sorry there are no passes over London.